Flag for West Bank Weather past 2 weeks in Bethlehem, West Bank

Now
75 °F

Scattered clouds.


Feels Like: 78 °F
Forecast: 56 / 70 °F
Wind: 8 mph from Southwest

Location: Ben Gurion International Airport

Current Time: May 29, 2015 at 9:33:38 AM

Latest Report: May 29, 2015 at 8:50 AM


Visibility: N/A

Pressure: 29.86 "Hg

Humidity: 57%

Dew point: 59 °F

Location of BethlehemLocation

Historic Weather in Bethlehem — Graph

°F

Bethlehem temperature yesterday

Maximum temperature yesterday: 86 °F (at 12:20 AM)
Minimum temperature yesterday: 72 °F (at 10:20 PM)
Average temperature yesterday: 80 °F

Past Weeks' High & Low Weather Summary

 TemperatureHumidityPressure
High109 °F (May 27, 4:20 PM)83% (May 15, 4:20 AM)30.18 "Hg (May 15, 4:20 AM)
Low59 °F (May 16, 4:50 AM)6% (May 18, 12:20 PM)29.65 "Hg (May 27, 4:50 PM)
Average78 °F52%29.91 "Hg
* Reported May 14 8:20 AM — May 29 8:20 AM, Bethlehem, Weather by CustomWeather, © 2015

Note: Actual official high and low records may vary slightly from our data, if they occured in-between our weather recording intervals... More about our weather records

Advertising

Bethlehem weather history for previous 24 hours

 ConditionsComfort  
Time TempWeatherWind HumidityBarometerVisibility
8:20 AM
Fri, May 29
73 °FPassing clouds.7 mph61%29.86 "HgN/A
7:50 AM72 °FPassing clouds.7 mph61%29.83 "HgN/A
7:20 AM70 °FScattered clouds.9 mph69%29.83 "HgN/A
6:50 AM68 °FPartly sunny.9 mph73%29.83 "HgN/A
6:20 AM68 °FPassing clouds.9 mph73%29.83 "HgN/A
5:50 AM68 °FPassing clouds.8 mph73%29.83 "HgN/A
5:20 AM68 °FPassing clouds.7 mph73%29.83 "HgN/A
4:50 AM68 °FPassing clouds.8 mph73%29.83 "HgN/A
4:20 AM68 °FPassing clouds.7 mph73%29.83 "HgN/A
3:50 AM70 °FPassing clouds.6 mph69%29.83 "HgN/A
3:20 AM70 °FPassing clouds.7 mph69%29.83 "HgN/A
2:50 AM70 °FPassing clouds.5 mph69%29.83 "HgN/A
2:20 AM70 °FPassing clouds.3 mph69%29.83 "HgN/A
1:50 AM70 °FPassing clouds.6 mph69%29.83 "HgN/A
1:20 AM70 °FPassing clouds.6 mph69%29.83 "HgN/A
12:50 AM72 °FPassing clouds.9 mph65%29.83 "HgN/A
12:20 AM72 °FPassing clouds.8 mph69%29.86 "HgN/A
11:50 PM
Thu, May 28
72 °FPassing clouds.8 mph69%29.86 "HgN/A
11:20 PM72 °FPassing clouds.7 mph73%29.86 "HgN/A
10:50 PM72 °FPassing clouds.12 mph73%29.86 "HgN/A
10:20 PM72 °FPassing clouds.9 mph73%29.86 "HgN/A
9:50 PM73 °FPassing clouds.10 mph74%29.86 "HgN/A
9:20 PM73 °FPassing clouds.8 mph74%29.83 "HgN/A
8:50 PM73 °FPassing clouds.12 mph69%29.83 "HgN/A
8:20 PM73 °FPassing clouds.8 mph74%29.83 "HgN/A
7:50 PM73 °FPassing clouds.8 mph74%29.83 "HgN/A
7:20 PM75 °FPassing clouds.9 mph69%29.80 "HgN/A
6:50 PM75 °FPassing clouds.10 mph69%29.80 "HgN/A
6:20 PM75 °FPassing clouds.10 mph69%29.80 "HgN/A
5:50 PM77 °FPassing clouds.12 mph65%29.80 "HgN/A
5:20 PM79 °FPassing clouds.13 mph61%29.80 "HgN/A
4:50 PM79 °FSunny.12 mph58%29.80 "Hg10 mi
4:20 PM81 °FSunny.14 mph58%29.80 "Hg10 mi
3:50 PM81 °FClear.13 mph58%29.80 "Hg6 mi
3:20 PM81 °FClear.12 mph54%29.80 "Hg6 mi
2:50 PM81 °FClear.14 mph54%29.80 "Hg6 mi
2:20 PM84 °FClear.15 mph55%29.80 "Hg5 mi
1:50 PM84 °FClear.14 mph51%29.80 "Hg5 mi
1:20 PM86 °FClear.10 mph43%29.80 "Hg5 mi
12:50 PM86 °FClear.12 mph40%29.80 "Hg6 mi
12:20 PM86 °FClear.8 mph40%29.80 "Hg6 mi
11:50 AM86 °FClear.9 mph46%29.80 "Hg6 mi
11:20 AM86 °FClear.8 mph46%29.80 "Hg6 mi
10:50 AM84 °FClear.6 mph51%29.80 "Hg6 mi
10:20 AM82 °FClear.6 mph55%29.77 "Hg5 mi
9:50 AM81 °FClear.8 mph62%29.80 "Hg5 mi
9:20 AM81 °FClear.9 mph66%29.77 "Hg5 mi
Weather by CustomWeather, © 2015

See weather overviewHow to use our weather pages